SBI4517 UUDD-UKBB

Flight info

Callsign SBI4517
Flight time N/A
Altitude 36000
Route UUDD SID SOTOG N181 NEMIP STAR UKBB
Aircraft B738/M-SDFGHIRWY/HB1

Departure

Time N/A
Airport Domodedovo International Airport (UUDD)

Arrival

Time 2025-10-06 21:24
Airport Boryspil International Airport (UKBB)
Time Latitude Longitude Altitude Speed Heading
2025-10-06 21:14 50.78430 31.04644 7706 ft 270 kts 211°
2025-10-06 21:14 50.73746 30.99953 6691 ft 264 kts 211°
2025-10-06 21:15 50.70655 30.96885 6025 ft 260 kts 211°
2025-10-06 21:15 50.67635 30.93837 5365 ft 257 kts 211°
2025-10-06 21:16 50.64677 30.90876 4983 ft 243 kts 211°
2025-10-06 21:16 50.61653 30.89412 4680 ft 221 kts 169°
2025-10-06 21:17 50.60208 30.89958 4452 ft 212 kts 162°
2025-10-06 21:17 50.56211 30.91540 3773 ft 181 kts 162°
2025-10-06 21:18 50.53782 30.91920 3455 ft 170 kts 179°
2025-10-06 21:18 50.51466 30.91776 3123 ft 165 kts 180°
2025-10-06 21:19 50.49164 30.91583 2929 ft 158 kts 182°
2025-10-06 21:19 50.47002 30.91464 2637 ft 159 kts 179°
2025-10-06 21:20 50.44858 30.91290 2198 ft 153 kts 179°
2025-10-06 21:20 50.42719 30.91135 1753 ft 154 kts 180°
2025-10-06 21:21 50.41649 30.91072 1555 ft 153 kts 180°
2025-10-06 21:21 50.39493 30.90914 1133 ft 154 kts 181°
2025-10-06 21:22 50.37351 30.90756 688 ft 156 kts 179°
2025-10-06 21:22 50.34584 30.90546 408 ft 72 kts 183°
2025-10-06 21:23 50.34251 30.90480 408 ft 7 kts 199°
2025-10-06 21:23 50.34061 30.90317 410 ft 15 kts 212°
2025-10-06 21:24 50.34055 30.90311 410 ft 0 kts 213°
2025-10-06 21:24 50.34050 30.90305 410 ft 4 kts 218°
2025-10-06 21:25 50.34110 30.90179 411 ft 12 kts
2025-10-06 21:25 50.34374 30.90198 409 ft 25 kts
2025-10-06 21:26 50.34735 30.90226 408 ft 25 kts
2025-10-06 21:27 50.34943 30.90001 407 ft 12 kts 354°
2025-10-06 21:27 50.35177 30.90014 407 ft 24 kts
2025-10-06 21:27 50.35255 30.89990 408 ft 7 kts 275°
2025-10-06 21:28 50.35258 30.89909 409 ft 0 kts 273°